Anderson, SC

8:32 PM EDT on September 29, 2016 (GMT -0400)
Anderson Regional

Weather History for KAND - August, 2014

Change the Weather History Date:

Thursday, August 21, 2014

  Actual Average Record
Temperature  
Mean Temperature 80 °F -  
Max Temperature 95 °F 88 °F 102 °F (1983)
Min Temperature 66 °F 68 °F 58 °F (1949)
Cooling Degree Days 16    
Growing Degree Days 30 (Base 50)    
Moisture  
Dew Point 67 °F    
Average Humidity 66    
Maximum Humidity 93    
Minimum Humidity 34    
Precipitation  
Precipitation 0.00 in - - ()
Sea Level Pressure  
Sea Level Pressure 30.06 in    
Wind  
Wind Speed 3 mph (NW)    
Max Wind Speed 9 mph    
Max Gust Speed -    
Visibility 10 miles    
Events Rain , Thunderstorm    
Averages and records for this station are not official NWS values.
T = Trace of Precipitation, MM = Missing Value Source: NWS Daily Summary

Daily Weather History Graph

Daily Weather History Graph

Search for Another Location

Airport or City:

Trip Planner

Search our weather history database for the weather conditions in past years. The results will help you decide how hot, cold, wet, or windy it might be!

Date:

Astronomy

Aug. 21, 2014 Rise Set
Actual Time 6:56 AM EDT 8:11 PM EDT
Civil Twilight 6:29 AM EDT 8:37 PM EDT
Nautical Twilight 5:58 AM EDT 9:08 PM EDT
Astronomical Twilight 5:25 AM EDT 9:41 PM EDT
Moon 3:29 AM EDT (8/21) 5:35 PM EDT (8/21)
Length of Visible Light 14h 07m
Length of Day
13h 15m
Waning Crescent, 13% of the Moon is Illuminated
Aug 21
Waning Crescent
Aug 25
New
Sep 2
First Quarter
Sep 8
Full
Sep 15
Last Quarter

Hourly Weather History & Observations

Time (EDT) Temp. Heat Index Dew Point Humidity Pressure Visibility Wind Dir Wind Speed Gust Speed Precip Events Conditions
12:56 AM 73.0 °F - 68.0 °F 84% 30.04 in 10.0 mi West 4.6 mph - N/A   Clear
1:56 AM 72.0 °F - 68.0 °F 87% 30.03 in 10.0 mi Calm Calm - N/A   Clear
2:56 AM 70.0 °F - 68.0 °F 93% 30.02 in 10.0 mi West 5.8 mph - N/A   Clear
3:56 AM 70.0 °F - 66.0 °F 87% 30.02 in 10.0 mi Calm Calm - N/A   Clear
4:56 AM 69.1 °F - 66.0 °F 90% 30.02 in 10.0 mi Calm Calm - N/A   Clear
6:56 AM 66.9 °F - 64.9 °F 93% 30.06 in 10.0 mi Calm Calm - N/A   Clear
7:56 AM 70.0 °F - 66.9 °F 90% 30.09 in 10.0 mi Calm Calm - N/A   Clear
8:56 AM 75.9 °F - 68.0 °F 76% 30.10 in 10.0 mi East 5.8 mph - N/A   Clear
9:56 AM 80.1 °F 82.7 °F 68.0 °F 67% 30.11 in 10.0 mi NNW 6.9 mph - N/A   Clear
10:56 AM 84.9 °F 86.6 °F 64.9 °F 51% 30.11 in 10.0 mi Calm Calm - N/A   Clear
11:56 AM 89.1 °F 91.0 °F 64.9 °F 45% 30.11 in 10.0 mi Calm Calm - N/A   Clear
1:56 PM 91.0 °F 92.6 °F 64.0 °F 41% 30.09 in 10.0 mi Variable 3.5 mph - N/A   Clear
2:56 PM 93.0 °F 94.6 °F 64.0 °F 38% 30.08 in 10.0 mi SSW 6.9 mph - N/A   Clear
3:56 PM 95.0 °F 96.0 °F 63.0 °F 34% 30.06 in 10.0 mi Calm Calm - N/A   Clear
4:56 PM 93.9 °F 95.6 °F 64.0 °F 37% 30.04 in 10.0 mi Calm Calm - N/A   Clear
5:56 PM 91.0 °F 93.8 °F 66.0 °F 44% 30.04 in 10.0 mi SSE 4.6 mph - N/A Thunderstorm Clear
6:41 PM 84.0 °F 86.5 °F 66.9 °F 56% 30.08 in 10.0 mi NW 9.2 mph - 0.00 in Rain Light Rain
6:56 PM 82.9 °F 85.4 °F 66.9 °F 58% 30.05 in 10.0 mi NNW 6.9 mph - 0.00 in Rain Light Rain
7:56 PM 82.0 °F 84.5 °F 66.9 °F 60% 30.06 in 10.0 mi NNE 4.6 mph - 0.00 in   Clear
8:56 PM 79.0 °F - 69.1 °F 72% 30.06 in 10.0 mi NNW 5.8 mph - N/A   Clear
9:56 PM 78.1 °F - 70.0 °F 76% 30.07 in 10.0 mi Calm Calm - N/A   Clear
10:56 PM 75.0 °F - 70.0 °F 84% 30.08 in 10.0 mi South 3.5 mph - N/A   Clear